Location: Caltech
(34.1382°N, 118.1253°W)
Time: 12:20:52
(UTC-07:00)

Cosmos 1408 Rocket - Visible Passes

Search period start: 22 July 2014 00:00
Search period end: 01 August 2014 00:00
Orbit: 604 x 632 km, 82.6° (Epoch: 20 July)

Date Brightness Start Highest point End Pass type
(mag) Time Alt. Az. Time Alt. Az. Time Alt. Az.
22 Jul 5.9 01:38:30 10° N 01:40:14 22° NNE 01:40:14 22° NNE visible
23 Jul 5.9 01:55:27 10° N 01:56:57 21° NNW 01:56:57 21° NNW visible
24 Jul 6.5 00:36:18 10° NE 00:36:34 11° NE 00:36:34 11° NE visible
24 Jul 6.1 02:12:45 10° NNW 02:13:41 15° NNW 02:13:41 15° NNW visible
25 Jul 6.3 00:52:15 10° NNE 00:53:19 16° NNE 00:53:19 16° NNE visible
26 Jul 6.2 01:08:51 10° N 01:10:04 18° N 01:10:04 18° N visible
27 Jul 6.2 01:25:48 10° N 01:26:51 17° NNW 01:26:51 17° NNW visible
28 Jul 6.4 01:43:07 10° NNW 01:43:38 13° NNW 01:43:38 13° NNW visible
29 Jul 6.4 00:22:35 10° NNE 00:23:19 14° NNE 00:23:19 14° NNE visible
30 Jul 6.3 00:39:11 10° N 00:40:07 16° N 00:40:07 16° N visible
31 Jul 6.4 00:56:09 10° NNW 00:56:56 15° NNW 00:56:56 15° NNW visible
